Regional Weather Roundup
Issued by NWS

Home | Current Version | Previous Version | Text Only | Print | Product List | Glossary On
Versions: 1 2 3 4 5 6 7 8 9 10 11 12 13 14 15 16 17 18 19 20 21 22 23 24 25 26 27 28 29 30 31 32 33 34 35 36 37 38 39 40 41 42 43 44 45 46 47 48 49 50
684
ASUS43 KTOP 242008
RWRKS

WEATHER ROUNDUP FOR KANSAS
NATIONAL WEATHER SERVICE GOODLAND KS
300 PM CDT WED MAY 24 2017

NOTE:  "FAIR" INDICATES FEW OR NO CLOUDS BELOW 12,000 FEET WITH NO
SIGNIFICANT WEATHER AND/OR OBSTRUCTIONS TO VISIBILITY.

KSZ001>006-013>018-027>032-041>047-242100-
NORTHWEST KANSAS

CITY           SKY/WX    TMP DP  RH WIND       PRES   REMARKS
GOODLAND       SUNNY     71  44  37 S14       29.71F
HILL CITY      SUNNY     67  38  34 MISG      29.74F
RUSSELL        MOSUNNY   63  44  50 S3        29.74F
$$

KSZ061>065-074>080-084>089-242100-
SOUTHWEST KANSAS

CITY           SKY/WX    TMP DP  RH WIND       PRES   REMARKS
DODGE CITY     SUNNY     68  39  34 CALM      29.76F
ELKHART          N/A     76  42  29 W10         N/A
GARDEN CITY    SUNNY     71  40  32 W9        29.75F
GREAT BEND     SUNNY     63  45  51 NW7       29.77F
LIBERAL        SUNNY     72  46  39 VRB6      29.76F
PRATT          SUNNY     62  40  45 CALM      29.78F
$$

KSZ066>073-081>083-090>101-242100-
SOUTHEAST KANSAS

CITY           SKY/WX    TMP DP  RH WIND       PRES   REMARKS
CHANUTE        CLOUDY    67  46  47 N13       29.71F
COFFEYVILLE    CLOUDY    66  49  54 W16       29.73F
HUTCHINSON     PTSUNNY   64  42  44 VRB6      29.77F
MEDICINE LODGE   N/A     68  42  38 NW7G16    29.77F
NEWTON         PTSUNNY   65  46  50 W10       29.77F
PARSONS        CLOUDY    66  46  48 W15G21    29.73F
WICHITA INTL   MOSUNNY   64  43  46 VRB6      29.76F
WICHITA JABRA  PTSUNNY   65  45  48 NW10      29.76F
WICHITA MCCONL PTSUNNY   63  43  47 NW8G17    29.76F
WINFIELD       CLOUDY    65  45  48 NW12G18   29.78F
$$

KSZ007>012-019>026-033>040-048>060-102>105-242100-
NORTHEAST KANSAS

CITY           SKY/WX    TMP DP  RH WIND       PRES   REMARKS
CONCORDIA      PTSUNNY   62  44  51 W3        29.74F
EMPORIA        PTSUNNY   63  45  51 NW9       29.72F
LAWRENCE       PTSUNNY   65  50  58 N13       29.69F
MANHATTAN      CLOUDY    66  45  46 N3        29.72F
MARYSVILLE     PTSUNNY   64  46  52 N7        29.72F
OLATHE IND     PTSUNNY   64  49  57 N12       29.70S
OLATHE EXE     PTSUNNY   63  49  60 N14       29.69S
SALINA         MOSUNNY   66  43  43 VRB3      29.76F
TOPEKA BILLARD CLOUDY    66  50  56 NE13      29.70S
TOPEKA FORBES  PTSUNNY   66  45  46 N12       29.70F
$$




USA.gov is the U.S. government's official web portal to all federal, state and local government web resources and services.